Home   Weather   Atlanta   Past weeks

Flag for USA Past Weather in Atlanta, Georgia, USA — Yesterday and Last 2 Weeks

Now
70 °F

Clear.


Feels Like: 69 °F
Forecast: 59 / 72 °F
Wind: 3 mph from North

Location: Fulton County Airport-Brown Field

Current Time: May 1, 2017 at 2:20:35 am

Latest Report: May 1, 2017 at 1:53 am


Visibility: 10 mi

Pressure: 29.89 "Hg

Humidity: 84%

Dew Point: 65 °F

Location of AtlantaLocation

Past Weather in Atlanta — Graph

°F

Atlanta Temperature Yesterday

Maximum temperature yesterday: 84 °F (at 3:53 pm)
Minimum temperature yesterday: 69 °F (at 11:53 pm)
Average temperature yesterday: 75 °F

High & Low Weather Summary for the Past Weeks

 TemperatureHumidityPressure
High88 °F (Apr 29, 4:53 pm)100% (Apr 17, 3:53 am)30.28 "Hg (Apr 17, 3:53 am)
Low52 °F (Apr 24, 7:53 am)38% (Apr 16, 5:53 pm)29.69 "Hg (Apr 27, 6:53 am)
Average69 °F79%29.96 "Hg
* Reported Apr 16 12:53 am — May 1 12:53 am, Atlanta, Weather by CustomWeather, © 2017

Note: Actual official high and low records may vary slightly from our data, if they occured in-between our weather recording intervals... More about our weather records

Advertising

Atlanta Weather History for the Previous 24 Hours

Scroll right to see more
 ConditionsComfort  
Time TempWeatherWind HumidityBarometerVisibility
12:53 am
Mon, May 1
70 °FOvercast.7 mph81%29.93 "Hg10 mi
11:53 pm
Sun, Apr 30
69 °FOvercast.7 mph84%30.01 "Hg10 mi
10:53 pm70 °FPassing clouds.3 mph79%29.98 "Hg10 mi
9:53 pm72 °FMostly cloudy.9 mph73%29.98 "Hg10 mi
8:53 pm79 °FOvercast.6 mph62%29.96 "Hg10 mi
7:53 pm80 °FScattered clouds.6 mph60%29.96 "Hg10 mi
6:53 pm82 °FPassing clouds.9 mph55%29.96 "Hg10 mi
5:53 pm83 °FSunny.7 mph55%29.99 "Hg10 mi
4:53 pm83 °FSunny.10 mph53%30.00 "Hg10 mi
3:53 pm84 °FBroken clouds.12 mph53%30.01 "Hg10 mi
2:53 pm83 °FScattered clouds.14 mph57%30.03 "Hg10 mi
1:53 pm80 °FBroken clouds.18 mph62%30.04 "Hg10 mi
12:53 pm77 °FScattered clouds.13 mph77%30.08 "Hg10 mi
12:14 pm73 °FMostly cloudy.8 mph88%30.15 "Hg10 mi
11:53 am73 °FMostly cloudy.8 mph88%30.10 "Hg9 mi
11:09 am72 °FOvercast.7 mph91%30.11 "Hg10 mi
11:01 am72 °FOvercast.10 mph91%30.10 "Hg10 mi
9:53 am72 °FOvercast.6 mph87%30.09 "Hg10 mi
9:13 am72 °FOvercast.10 mph84%30.09 "Hg10 mi
8:53 am72 °FOvercast.13 mph84%30.04 "Hg10 mi
7:53 am71 °FOvercast.10 mph87%30.02 "Hg10 mi
7:01 am71 °FMostly cloudy.8 mph90%30.06 "Hg10 mi
5:53 am71 °FPassing clouds.8 mph93%30.02 "Hg10 mi
4:53 am72 °FClear.6 mph91%30.03 "Hg10 mi
3:53 am73 °FClear.7 mph88%30.02 "Hg10 mi
2:53 am74 °FPassing clouds.8 mph76%30.04 "Hg10 mi
Weather by CustomWeather, © 2017

See weather overviewHow to use our weather pages